Regional Weather Roundup
Issued by NWS

Home | Current Version | Previous Version | Graphics & Text | Print | Product List | Glossary On
Versions: 1 2 3 4 5 6 7 8 9 10 11 12 13 14 15 16 17 18 19 20 21 22 23 24 25 26 27 28 29 30 31 32 33 34 35 36 37 38 39 40 41 42 43 44 45 46 47 48 49 50
000
ASUS43 KLMK 250610
RWRKY
KENTUCKY REGIONAL WEATHER ROUNDUP
NATIONAL WEATHER SERVICE LOUISVILLE KY
200 AM EDT FRI MAY 25 2018

NOTE "FAIR" INDICATES FEW OR NO CLOUDS BELOW 12,000 FEET
WITH NO SIGNIFICANT WEATHER AND/OR OBSTRUCTIONS TO VISIBILITY.

KYZ001>023-026-027-061>063-070>075-250700-
WESTERN AND SOUTH CENTRAL KENTUCKY

CITY           SKY/WX    TMP DP  RH WIND       PRES   REMARKS
PADUCAH        FAIR      70  66  87 CALM      30.02F
HENDERSON      NOT AVBL
OWENSBORO      FAIR      70  61  73 CALM      30.05F
HOPKINSVILLE   FAIR      71  64  79 CALM      30.04F
BOWLING GREEN  FAIR      69  66  90 CALM      30.05F
GLASGOW        FAIR      64  61  89 CALM      30.06F
$$

KYZ024-025-028>034-038-045-046-053-250700-
NORTH CENTRAL KENTUCKY

CITY           SKY/WX    TMP DP  RH WIND       PRES   REMARKS
LOUISVILLE/SDF FAIR      68  59  73 NW3       30.06F
LOUISVILLE/LOU FAIR      64  60  87 W3        30.07F
FORT KNOX      FAIR      61  58  91 CALM      30.07F
$$

KYZ035>037-039>044-047>052-055>060-089>105-250700-
NORTHEAST KENTUCKY

CITY           SKY/WX    TMP DP  RH WIND       PRES   REMARKS
LEXINGTON      FAIR      65  59  81 CALM      30.07F
COVINGTON      FAIR      64  55  72 CALM      30.07F
FRANKFORT      FAIR      62  57  83 N3        30.06F
$$

KYZ054-064>069-076>088-106>120-250700-
SOUTHEAST KENTUCKY

CITY           SKY/WX    TMP DP  RH WIND       PRES   REMARKS
JACKSON        FAIR      71  60  68 E3        30.09F
LONDON         FAIR      67  62  84 CALM      30.08F
SOMERSET       FAIR      63  63 100 MISG      30.08S
MIDDLESBORO    CLOUDY    69  67  93 CALM      30.10F
MONTICELLO     FAIR      65  64  97 NW9       30.08F
$$





USA.gov is the U.S. government's official web portal to all federal, state and local government web resources and services.